Location: Northcutt
(34.7304°N, 84.4305°W)
Time: 10:02:45
(UTC+00:00)

deb Explorer IX - Pass Details

Date: 10 October 2022
Orbit: 533 x 1057 km, 38.8° (Epoch: 02 December)

Event Time Altitude Azimuth Distance (km) Brightness Sun altitude
Exits shadow 10:07:51 44° 297° (WNW) 813 ? -19.6°
Maximum altitude 10:08:55 59° 350° (N) 694 ? -19.4°
Drops below altitude 10° 10:13:37 10° 70° (ENE) 2,077 ? -18.4°
Sets 10:16:12 0° 74° (ENE) 3,081 ? -17.9°
